Погода в Митрофановке

Россия / Воронежская область     49°58′15″N   39°41′34″E
темп.,
°C
ветер,
м/с
пор.,
м/с
влажн.,
%
обл.,
%
осадки,
мм/ч
давл.,
гПа
погр.,
м
13 апреля, вт
вт1300:00+13вюв514595 0.0 1023330
03:00+11вюв4969100 0.0 1024168
06:00+10в41169100 0.0 1024232
09:00+15вюв71144100 0.0 1024540
12:00+19юв813371 0.0 10231338
15:00+21юв913355 0.0 10222307
18:00+19юв5943100 0.0 1021461
21:00+16вюв245592 0.0 102285
14 апреля, ср
ср1400:00+12вюв365499 0.0 102199
03:00+10в35578 0.0 102075
06:00+9вюв386355 0.0 1020164
09:00+14юв584191 0.0 1019484
12:00+18ююв5735100 0.0 10181554
15:00+20юв582593 0.0 10172221
18:00+18вюв463790 0.0 1017227
21:00+14юз375864 0.0 1017188
15 апреля, чт
чт1500:00+13з2364100 0.0 101748
03:00+12св356796 0.0 1016103
06:00+12св2466100 0.0 101592
09:00+15ююв2251100 0.0 1015350
12:00+18ююз4542100 0.0 10151826
15:00+18ю5644100 0.0 10141988
18:00+16юв3550100 0.0 1014335
21:00+14юв2559100 0.0 1014119
16 апреля, пт
пт1600:00+13ю236189 0.0 101459
03:00+11юз227314 0.0 101425
06:00+10ююз117863 0.1 101516
09:00+14з2258100 0.1 1015461
12:00+17юз2247100 0.3 10151518
15:00+18ю1242100 0.5 10141856
18:00+17всв235278 0.0 1014187
21:00+14в336068 0.0 101540
17 апреля, сб
сб1700:00+11зюз3678100 0.1 1015214
03:00+11ю3584100 0.1 1016139
06:00+10ю4887100 1.3 1016429
09:00+11ююз2383100 4.5 1017555
12:00+12юз2273100 2.5 1019671
15:00+13з3266100 2.6 10201039
18:00+12сз347186 0.1 1021760
21:00+10ссв4893100 0.4 1023514